Location: ??????????
(41.2581°N, 22.8006°E)
Time: 23:15:34
(UTC+00:00)

GEOS 3 Rocket - Pass Details

Date: 18 March 2026
Orbit: 767 x 846 km, 115.0° (Epoch: 13 April)

Event Time Altitude Azimuth Distance (km) Brightness Sun altitude
Rises 03:30:57 0° 31° (NNE) 3,413 7.5 -13.0°
Reaches altitude 10° 03:33:20 10° 27° (NNE) 2,474 6.7 -12.5°
Maximum altitude 03:38:33 52° 312° (NW) 1,038 3.9 -11.6°
Enters shadow 03:43:34 11° 238° (WSW) 2,387 5.5 -10.6°
